NOAA 16 DEB, 41409

Orbit data source: Space-Track

NOAA 16 DEB, 41409 is space debris in SSO originally from a launch on Thu, 21 Sep 2000 UTC launched from the Air Force Western Test Range (AFWTR). Debris objects in space refer to the collection of defunct objects orbiting the Earth. Examples of debris include non-operational satellites, rocket bodies, and fragments generated from explosions, collisions, or faulty payload assembly.

Loading next visibility...
Identifier
41409, 2000-055KN
Orbit
SSO
Country
Flag of USUS
Related business
Manufacturer
Unknown
Mission
Spacecraft
Bus & Motor
Unknown
Mass
Unknown
Launch date (UTC)
2000-09-21 (26 years ago)
Launch vehicle
Unknown
Launch site
Air Force Western Test Range (AFWTR)
Object type
Payload
Rocket body
Debris
Shape & HBR
Unknown shape, 0.1 m
Radar Cross Section
Small (<0.1 m²)

Expand to show TLE details & history
Last TLE update: 14 hours ago

TLE from 14 hours ago
0 NOAA 16 DEB
1 41409U 00055KN  26107.19944415  .00003820  00000-0  11479-2 0  9998
2 41409  98.6372 193.7976 0023524  32.3540 327.9086 14.43092495527178
Epoch: 2026-04-17T04:47Z
TLE epoch observation values (Epoch: 2026-04-17T04:47:11.974Z)
Latitude
-0.00008°
Longitude
-83.33834°
Altitude
737.053 km
Speed
7.494 km/s
True Right ascension
12h 55m 11s
True Declination
0° 00' 00"
Sunlit
Object was in full shadow at epoch
Visualization orbit readout
Latitude
Unknown
Longitude
Unknown
Altitude
Unknown
Speed
Unknown
Apparent Right ascension
Unknown
Apparent Declination
Unknown
Sunlit
N/A
Visualization observer readout
Local Sidereal Time
01:48:06
Azimuth
Unknown
Elevation
Unknown
Doppler factor
Unknown
Orbital elements
Apogee altitude
762.181 km
Perigee altitude
728.666 km
Semi-major axis
7,123.56 km
Eccentricity
0.00235
Inclination
98.6372°
RAAN
193.7976°
Arg. of periapsis
32.354°
True anomaly
327.76503°
Mean anomaly
327.9086°
Eccentric anomaly
327.83685°
Mean motion
3.60992 °/min
Orbital period
99.73 mins
BSTAR
0.0011479
Loading maneuver chart data...
Computing Atmospheric mass density...
Loading historical data...
Loading historical data...
Loading historical data...
Loading historical data...
Loading historical data...
Loading historical data...
Loading historical data...

Documentation

Showing up to 5 results
|